This is the latest recevied weather packets stored in our database for station/object W3BRL. If no packets are shown the sender has not sent any weather packets the latest 10 day(s).
| Time | Temp. | Humidity | Pressure | Rain* | Wind** | Luminosity | Snow |
|---|---|---|---|---|---|---|---|
| 1777208883 | 8.33° C | 87% | 1017.2 hPa | 0 mm | - | 169 W/m² | - |
| 1777208579 | 8.33° C | 88% | 1017.2 hPa | 0 mm | - | 142 W/m² | - |
| 1777208276 | 8.33° C | 90% | 1017 hPa | 0 mm | - | 152 W/m² | - |
| 1777207971 | 8.33° C | 92% | 1017 hPa | 0 mm | - | 132 W/m² | - |
| 1777207667 | 7.78° C | 93% | 1016.7 hPa | 0 mm | - | 124 W/m² | - |
| 1777207362 | 7.78° C | 94% | 1016.8 hPa | 0 mm | - | 115 W/m² | - |
| 1777207062 | 7.78° C | 95% | 1016.7 hPa | 0 mm | - | 88 W/m² | - |
| 1777206758 | 7.22° C | 95% | 1016.7 hPa | 0 mm | - | 114 W/m² | - |
| 1777206453 | 7.22° C | 95% | 1016.7 hPa | 0 mm | - | 101 W/m² | - |
| 1777206153 | 7.22° C | 96% | 1016.6 hPa | 0 mm | - | 92 W/m² | - |
| 1777205850 | 7.22° C | 96% | 1016.7 hPa | 0 mm | - | 80 W/m² | - |
| 1777205547 | 7.22° C | 96% | 1016.6 hPa | 0 mm | - | 69 W/m² | - |
| 1777205243 | 6.67° C | 96% | 1016.5 hPa | 0 mm | - | 60 W/m² | - |
| 1777204939 | 6.67° C | 96% | 1016.3 hPa | 0 mm | - | 51 W/m² | - |
| 1777204635 | 6.67° C | 96% | 1016.4 hPa | 0 mm | - | 45 W/m² | - |
| 1777204330 | 6.67° C | 96% | 1016.3 hPa | 0 mm | - | 45 W/m² | - |
| 1777204027 | 6.67° C | 96% | 1016 hPa | 0 mm | - | 41 W/m² | - |
| 1777203721 | 6.67° C | 96% | 1016.2 hPa | 0 mm | - | 33 W/m² | - |
| 1777203416 | 6.67° C | 96% | 1016.1 hPa | 0 mm | - | 31 W/m² | - |
| 1777203113 | 6.67° C | 96% | 1015.9 hPa | 0 mm | - | 30 W/m² | - |
| 1777202810 | 6.67° C | 96% | 1015.8 hPa | 0 mm | - | 28 W/m² | - |
| 1777202509 | 6.67° C | 96% | 1015.7 hPa | 0 mm | - | 23 W/m² | - |
| 1777202208 | 6.67° C | 96% | 1015.7 hPa | 0 mm | - | 18 W/m² | - |
| 1777201904 | 6.67° C | 96% | 1015.5 hPa | 0 mm | - | 17 W/m² | - |
| 1777201602 | 6.11° C | 96% | 1015.4 hPa | 0 mm | - | 14 W/m² | - |
* Rain latest hour (hover to see other rain measurements)
** Current wind speed in m/s (hover to see current wind gust speed)